timestamp,wind_dir_avg,wind_spd_avg,wind_spd_max_dir,wind_spd_gust,battery_voltage,lat,long
2022-01-07 00:04:01+00:00,264.0,13.46,273.0,14.77,12.41,47.59359,-54.27349
2022-01-07 00:14:01+00:00,263.0,13.11,269.0,14.85,12.33,47.59359,-54.27349
2022-01-07 00:24:01+00:00,272.0,13.16,278.0,14.72,12.33,47.59359,-54.27349
2022-01-07 00:34:01+00:00,263.0,13.26,265.0,14.35,12.33,47.59359,-54.27349
2022-01-07 00:44:01+00:00,267.0,12.99,272.0,14.49,12.33,47.59359,-54.27349
2022-01-07 00:54:01+00:00,274.0,13.1,287.0,14.68,12.33,47.59359,-54.27349
2022-01-07 01:04:01+00:00,271.0,11.75,276.0,14.08,12.33,47.59359,-54.27349
2022-01-07 01:14:00+00:00,279.0,16.09,282.0,18.77,12.25,47.59359,-54.27349
2022-01-07 01:24:00+00:00,278.0,16.67,286.0,19.59,12.25,47.59359,-54.27349
2022-01-07 01:34:00+00:00,277.0,14.77,281.0,18.95,12.25,47.59359,-54.27349
2022-01-07 01:44:00+00:00,271.0,17.6,276.0,18.92,12.25,47.59359,-54.27349
2022-01-07 01:54:00+00:00,284.0,13.93,282.0,18.37,12.25,47.59359,-54.27349
2022-01-07 02:04:00+00:00,282.0,11.59,284.0,16.12,12.25,47.59359,-54.27349
2022-01-07 02:14:00+00:00,278.0,10.77,274.0,16.9,12.25,47.59359,-54.27349
2022-01-07 02:24:00+00:00,278.0,10.0,274.0,11.55,12.25,47.59359,-54.27349
2022-01-07 02:34:00+00:00,279.0,8.47,274.0,9.57,12.25,47.59359,-54.27349
2022-01-07 02:44:00+00:00,292.0,10.24,297.0,12.11,12.25,47.59359,-54.27349
2022-01-07 02:54:00+00:00,286.0,9.98,287.0,11.31,12.25,47.59359,-54.27349
2022-01-07 03:04:00+00:00,288.0,10.39,286.0,16.92,12.25,47.59359,-54.27349
2022-01-07 03:14:00+00:00,291.0,11.6,292.0,14.9,12.25,47.59359,-54.27349
2022-01-07 03:24:00+00:00,283.0,11.31,277.0,16.52,12.25,47.59359,-54.27349
2022-01-07 03:34:00+00:00,288.0,10.14,289.0,12.85,12.25,47.59359,-54.27349
2022-01-07 03:44:00+00:00,290.0,9.3,288.0,11.3,12.25,47.59359,-54.27349
2022-01-07 03:54:00+00:00,300.0,10.95,305.0,12.73,12.25,47.59359,-54.27349
2022-01-07 04:04:00+00:00,299.0,10.83,306.0,12.28,12.25,47.59359,-54.27349
2022-01-07 04:14:00+00:00,292.0,10.14,294.0,11.75,12.17,47.59359,-54.27349
2022-01-07 04:24:00+00:00,296.0,12.2,292.0,14.96,12.17,47.59359,-54.27349
2022-01-07 04:34:00+00:00,291.0,10.81,288.0,14.95,12.17,47.59359,-54.27349
2022-01-07 04:44:00+00:00,291.0,10.22,292.0,11.56,12.17,47.59359,-54.27349
2022-01-07 04:54:00+00:00,291.0,9.98,301.0,11.67,12.17,47.59359,-54.27349
2022-01-07 05:04:00+00:00,284.0,9.18,285.0,11.12,12.17,47.59359,-54.27349
2022-01-07 05:14:01+00:00,290.0,9.76,284.0,11.13,12.17,47.59359,-54.27349
2022-01-07 05:24:01+00:00,282.0,8.62,283.0,10.53,12.17,47.59359,-54.27349
2022-01-07 05:34:01+00:00,292.0,4.51,276.0,9.09,12.17,47.59359,-54.27349
2022-01-07 05:44:01+00:00,279.0,6.02,272.0,9.33,12.17,47.59359,-54.27349
2022-01-07 05:54:01+00:00,307.0,5.01,304.0,6.22,12.17,47.59359,-54.27349
2022-01-07 06:04:01+00:00,315.0,6.97,318.0,8.46,12.17,47.59359,-54.27349
2022-01-07 06:14:01+00:00,303.0,4.71,304.0,5.36,12.17,47.59359,-54.27349
2022-01-07 06:24:01+00:00,283.0,4.07,281.0,4.94,12.17,47.59359,-54.27349
2022-01-07 06:34:01+00:00,249.0,3.53,264.0,5.17,12.17,47.59359,-54.27349
2022-01-07 06:44:01+00:00,295.0,7.09,283.0,9.0,12.17,47.59359,-54.27349
2022-01-07 06:54:01+00:00,302.0,4.94,303.0,5.67,12.17,47.59359,-54.27349
2022-01-07 07:04:01+00:00,285.0,4.69,285.0,5.22,12.17,47.59359,-54.27349
2022-01-07 07:14:00+00:00,271.0,4.73,269.0,5.63,12.17,47.59359,-54.27349
2022-01-07 07:24:00+00:00,271.0,5.96,275.0,9.48,12.17,47.59359,-54.27349
2022-01-07 07:34:00+00:00,280.0,5.5,282.0,6.43,12.17,47.59359,-54.27349
2022-01-07 07:44:00+00:00,277.0,5.43,275.0,5.84,12.17,47.59359,-54.27349
2022-01-07 07:54:00+00:00,264.0,5.99,265.0,9.46,12.17,47.59359,-54.27349
2022-01-07 08:04:00+00:00,273.0,8.01,272.0,9.01,12.17,47.59359,-54.27349
2022-01-07 08:14:01+00:00,270.0,6.9,270.0,8.74,12.09,47.59359,-54.27349
2022-01-07 08:24:01+00:00,273.0,6.31,274.0,8.55,12.09,47.59359,-54.27349
2022-01-07 08:34:01+00:00,275.0,6.53,282.0,7.75,12.09,47.59359,-54.27349
2022-01-07 08:44:01+00:00,278.0,7.61,294.0,8.85,12.09,47.59359,-54.27349
2022-01-07 08:54:01+00:00,280.0,7.22,283.0,8.15,12.09,47.59359,-54.27349
2022-01-07 09:04:01+00:00,298.0,6.79,297.0,8.21,12.09,47.59359,-54.27349
2022-01-07 09:14:01+00:00,309.0,5.97,311.0,7.05,12.09,47.59359,-54.27349
2022-01-07 09:24:01+00:00,306.0,5.2,298.0,5.86,12.09,47.59359,-54.27349
2022-01-07 09:34:01+00:00,300.0,3.54,309.0,4.48,12.09,47.59359,-54.27349
2022-01-07 09:44:01+00:00,294.0,3.29,301.0,3.93,12.09,47.59359,-54.27349
2022-01-07 09:54:01+00:00,304.0,4.12,309.0,5.36,12.09,47.59359,-54.27349
2022-01-07 10:04:01+00:00,305.0,5.2,303.0,6.19,12.09,47.59359,-54.27349
2022-01-07 10:14:01+00:00,307.0,5.36,304.0,5.85,12.09,47.59359,-54.27349
2022-01-07 10:24:01+00:00,315.0,4.22,316.0,4.67,12.09,47.59359,-54.27349
2022-01-07 10:34:01+00:00,328.0,3.51,324.0,4.35,12.09,47.59359,-54.27349
2022-01-07 10:44:01+00:00,329.0,3.68,324.0,4.45,12.09,47.59359,-54.27349
2022-01-07 10:54:01+00:00,307.0,3.8,307.0,4.54,12.09,47.59359,-54.27349
2022-01-07 11:04:01+00:00,323.0,1.85,328.0,2.37,12.09,47.59359,-54.27349
2022-01-07 11:14:01+00:00,304.0,3.11,310.0,3.82,12.09,47.59359,-54.27349
2022-01-07 11:24:01+00:00,272.0,2.66,274.0,3.17,12.09,47.59359,-54.27349
2022-01-07 11:34:01+00:00,294.0,2.7,301.0,3.72,12.09,47.59359,-54.27349
2022-01-07 11:44:01+00:00,319.0,3.85,322.0,4.39,12.09,47.59359,-54.27349
2022-01-07 11:54:01+00:00,309.0,4.33,310.0,5.41,12.09,47.59359,-54.27349
2022-01-07 12:04:01+00:00,293.0,4.67,299.0,5.61,12.09,47.59359,-54.27349
2022-01-07 12:14:00+00:00,282.0,4.01,287.0,4.53,12.17,47.59359,-54.27349
2022-01-07 12:24:00+00:00,281.0,4.25,284.0,5.17,12.17,47.59359,-54.27349
2022-01-07 12:34:00+00:00,294.0,4.21,298.0,4.77,12.17,47.59359,-54.27349
2022-01-07 12:44:00+00:00,288.0,3.74,293.0,4.27,12.17,47.59359,-54.27349
2022-01-07 12:54:00+00:00,287.0,4.67,285.0,5.68,12.17,47.59359,-54.27349
2022-01-07 13:04:00+00:00,287.0,4.72,283.0,5.26,12.17,47.59359,-54.27349
2022-01-07 13:14:01+00:00,293.0,4.7,287.0,5.48,12.57,47.59359,-54.27349
2022-01-07 13:24:01+00:00,293.0,4.46,299.0,5.16,12.57,47.59359,-54.27349
2022-01-07 13:34:01+00:00,306.0,4.27,303.0,4.94,12.57,47.59359,-54.27349
2022-01-07 13:44:01+00:00,302.0,4.11,298.0,4.68,12.57,47.59359,-54.27349
2022-01-07 13:54:01+00:00,308.0,3.43,307.0,4.51,12.57,47.59359,-54.27349
2022-01-07 14:04:01+00:00,320.0,3.69,319.0,4.03,12.57,47.59359,-54.27349
2022-01-07 14:14:01+00:00,325.0,4.16,313.0,5.12,13.68,47.59359,-54.27349
2022-01-07 14:24:01+00:00,308.0,3.23,292.0,5.23,13.68,47.59359,-54.27349
2022-01-07 14:34:01+00:00,314.0,1.93,303.0,2.96,13.68,47.59359,-54.27349
2022-01-07 14:44:01+00:00,352.0,1.94,352.0,2.73,13.68,47.59359,-54.27349
2022-01-07 14:54:01+00:00,23.0,1.9,43.0,2.81,13.68,47.59359,-54.27349
2022-01-07 15:04:01+00:00,325.0,1.22,323.0,1.56,13.68,47.59359,-54.27349
2022-01-07 15:14:01+00:00,20.0,2.11,16.0,2.56,13.68,47.59359,-54.27349
2022-01-07 15:24:01+00:00,14.0,1.62,9.0,2.09,13.68,47.59359,-54.27349
2022-01-07 15:34:01+00:00,50.0,1.37,50.0,1.63,13.68,47.59359,-54.27349
2022-01-07 15:44:01+00:00,64.0,1.81,70.0,2.93,13.68,47.59359,-54.27349
2022-01-07 15:54:01+00:00,135.0,2.22,145.0,2.65,13.68,47.59359,-54.27349
2022-01-07 16:04:01+00:00,143.0,1.61,145.0,1.9,13.68,47.59359,-54.27349
2022-01-07 16:14:00+00:00,159.0,1.39,164.0,2.03,14.0,47.59359,-54.27349
2022-01-07 16:24:00+00:00,84.0,1.47,87.0,2.18,14.0,47.59359,-54.27349
2022-01-07 16:34:00+00:00,80.0,2.21,74.0,3.02,14.0,47.59359,-54.27349
2022-01-07 16:44:00+00:00,72.0,2.3,57.0,3.41,14.0,47.59359,-54.27349
2022-01-07 16:54:00+00:00,68.0,2.06,67.0,2.58,14.0,47.59359,-54.27349
2022-01-07 17:04:00+00:00,35.0,2.07,34.0,2.56,14.0,47.59359,-54.27349
2022-01-07 17:14:01+00:00,47.0,2.75,46.0,3.37,13.76,47.59359,-54.27349
2022-01-07 17:24:01+00:00,40.0,2.81,51.0,3.41,13.76,47.59359,-54.27349
2022-01-07 17:34:01+00:00,49.0,3.08,48.0,3.91,13.76,47.59359,-54.27349
2022-01-07 17:44:01+00:00,73.0,2.29,77.0,2.59,13.76,47.59359,-54.27349
2022-01-07 17:54:01+00:00,44.0,3.21,48.0,3.73,13.76,47.59359,-54.27349
2022-01-07 18:04:01+00:00,45.0,4.34,45.0,5.27,13.76,47.59359,-54.27349
2022-01-07 18:14:01+00:00,60.0,3.64,58.0,4.6,13.13,47.59359,-54.27349
2022-01-07 18:24:01+00:00,102.0,3.75,113.0,5.12,13.13,47.59359,-54.27349
2022-01-07 18:34:01+00:00,84.0,2.82,104.0,3.66,13.13,47.59359,-54.27349
2022-01-07 18:44:01+00:00,117.0,3.11,110.0,4.13,13.13,47.59359,-54.27349
2022-01-07 18:54:01+00:00,88.0,2.19,94.0,3.2,13.13,47.59359,-54.27349
2022-01-07 19:04:01+00:00,142.0,3.64,139.0,4.48,13.13,47.59359,-54.27349
2022-01-07 19:14:01+00:00,116.0,2.98,122.0,4.34,12.65,47.59359,-54.27349
2022-01-07 19:24:01+00:00,83.0,1.22,78.0,2.48,12.65,47.59359,-54.27349
2022-01-07 19:34:01+00:00,132.0,2.9,128.0,3.93,12.65,47.59359,-54.27349
2022-01-07 19:44:01+00:00,108.0,0.33,110.0,3.16,12.65,47.59359,-54.27349
2022-01-07 19:54:01+00:00,119.0,1.29,103.0,3.63,12.65,47.59359,-54.27349
2022-01-07 20:04:01+00:00,92.0,3.6,79.0,8.48,12.65,47.59359,-54.27349
2022-01-07 21:14:01+00:00,84.0,3.33,88.0,6.32,12.49,47.59359,-54.27349
2022-01-07 21:24:01+00:00,80.0,6.99,95.0,10.45,12.49,47.59359,-54.27349
2022-01-07 21:34:01+00:00,82.0,5.61,87.0,10.43,12.49,47.59359,-54.27349
2022-01-07 21:44:01+00:00,77.0,5.55,82.0,10.75,12.49,47.59359,-54.27349
2022-01-07 21:54:01+00:00,75.0,2.79,95.0,7.84,12.49,47.59359,-54.27349
2022-01-07 22:04:01+00:00,90.0,3.9,78.0,9.2,12.49,47.59359,-54.27349
2022-01-07 22:14:01+00:00,75.0,9.49,70.0,11.06,12.41,47.59359,-54.27349
2022-01-07 22:24:01+00:00,79.0,8.0,69.0,10.99,12.41,47.59359,-54.27349
2022-01-07 22:34:01+00:00,81.0,5.26,82.0,10.08,12.41,47.59359,-54.27349
2022-01-07 22:44:01+00:00,79.0,9.71,70.0,11.31,12.41,47.59359,-54.27349
2022-01-07 22:54:01+00:00,83.0,7.45,88.0,10.28,12.41,47.59359,-54.27349
2022-01-07 23:04:01+00:00,82.0,8.74,79.0,10.66,12.41,47.59359,-54.27349
2022-01-07 23:14:01+00:00,78.0,8.67,80.0,10.75,12.49,47.59359,-54.27349
2022-01-07 23:24:01+00:00,74.0,9.36,66.0,11.43,12.49,47.59359,-54.27349
2022-01-07 23:34:01+00:00,78.0,9.5,72.0,11.59,12.49,47.59359,-54.27349
2022-01-07 23:44:01+00:00,84.0,7.94,91.0,10.26,12.49,47.59359,-54.27349
2022-01-07 23:54:01+00:00,95.0,6.85,114.0,10.61,12.49,47.59359,-54.27349
